Regional Weather Roundup
Issued by NWS

Home | Current Version | Previous Version | Graphics & Text | Print | Product List | Glossary On
Versions: 1 2 3 4 5 6 7 8 9 10 11 12 13 14 15 16 17 18 19 20 21 22 23 24 25 26 27 28 29 30 31 32 33 34 35 36 37 38 39 40 41 42 43 44 45 46 47 48 49 50
000
ASUS45 KTFX 210519
RWRMT
MONTANA HOURLY WEATHER ROUNDUP
NATIONAL WEATHER SERVICE GREAT FALLS MT
1119 PM MDT SUN APR 20 2014

NOTE: "FAIR" INDICATES FEW OR NO CLOUDS BELOW 12000 FEET WITH NO
SIGNIFICANT WEATHER AND/OR OBSTRUCTIONS TO VISIBILITY.

* THESE STATIONS ARE NOT UNDER NWS QUALITY CONTROL. THEY DO NOT
   REPORT WEATHER SUCH AS PRECIPITATION OR FOG.

MTZ001>007-043-210600-
WEST OF THE DIVIDE
CITY           SKY/WX    TMP DP  RH WIND       PRES   REMARKS
KALISPELL      PTCLDY    37  27  67 N3        30.22S
MISSOULA       PTCLDY    43  25  49 CALM      30.25R
BUTTE          PTCLDY    39  16  39 VRB3      30.25R
MULLAN PASS    CLEAR     34  21  59 S5        30.23S WCI  29
* ESSEX        N/A       34  28  79 N/A        N/A
* LINCOLN      N/A       39  20  46 NE3        N/A
* LOOKOUT PASS N/A       35  25  67 N/A        N/A
* POLSON       N/A       42  19  40 E1         N/A
* SEELEY LAKE  N/A       33  24  70 NE2G7      N/A
* THOMP F APT  CLEAR     39  14  36 NE3        N/A
$$

MTZ008-052>055-210600-
SOUTHWEST MONTANA
CITY           SKY/WX    TMP DP  RH WIND       PRES   REMARKS
BOZEMAN        PTCLDY    41  19  41 SW6       30.23R
DILLON         PTCLDY    45  12  26 E9        30.22R
W YELLOWSTONE  N/A       34  23  64 N/A        N/A
* THREE FORKS  PTCLDY    50  18  28 N/A        N/A
* BOULDER HILL N/A       40  14  35 W1         N/A
* MONIDA PASS  N/A       35  14  42 SW4        N/A
* RAYNOLDS PAS N/A       38  23  55 S2         N/A
* WHITEHALL    N/A       48  13  24 NW5        N/A
* WISE RIVER   N/A       36  16  44 S3         N/A
$$

MTZ009>010-012-014-046-048-049-054-210600-
EAST SLOPES AND CENTRAL MONTANA
CITY           SKY/WX    TMP DP  RH WIND       PRES   REMARKS
CUT BANK       CLOUDY    43  23  45 W12       30.16S
GREAT FALLS    MOCLDY    39  19  45 SW3       30.19S
HELENA         PTCLDY    48  18  30 CALM      30.21S
MALMSTROM AFB  PTCLDY    43  19  38 CALM      30.17S
* CONRAD       CLOUDY    36  21  54 N/A        N/A
* DEARBORN     N/A       46  18  33 S2         N/A
* EAST GLACIER N/A       42  19  40 NW17G23    N/A
* MONARCH      N/A       35   6  29 SW4        N/A
* PENDROY      N/A       43  17  35 W11        N/A
* ROGERS PASS  N/A       41  13  32 SE9G19     N/A
* SAINT MARY   N/A       42  20  41 S5G15      N/A
* SWEET GRASS  N/A       42  23  47 W9G14      N/A
* WHITE SULPH  N/A       42  11  28 NE4G13     N/A
$$

MTZ011-013-016-021-035-040-045-047-050-051-210600-
NORTH CENTRAL MONTANA
CITY           SKY/WX    TMP DP  RH WIND       PRES   REMARKS
HAVRE          CLEAR     43  23  45 W8        30.14R
LEWISTOWN      PTCLDY    36  19  50 SE8       30.19R WCI  30
* CHINOOK      CLEAR     43  21  42 W5        30.14R
* FORT BENTON  CLEAR     45  21  38 S5        30.19S
* MALTA APT    CLEAR     39  21  48 CALM      30.08R
* CHESTER      N/A       44  22  42 W8G13      N/A
* DENTON       N/A       36  17  46 SW9        N/A   WCI  29
* GEYSER       N/A       33  17  52 SW7        N/A   WCI  27
* JUDITH GAP   N/A       38  18  44 S3         N/A
* LOMA         N/A       50  21  32 NW9        N/A
$$

MTZ017>020-022>027-061-062-210600-
NORTHEAST MONTANA
CITY           SKY/WX    TMP DP  RH WIND       PRES   REMARKS
GLASGOW        CLEAR     45  27  49 NW5       30.10R
GLENDIVE       CLEAR     39  21  48 W8        30.12R WCI  33
JORDAN         PTCLDY    37  25  62 W9        30.13R WCI  30
SIDNEY         CLEAR     43  27  53 W9        30.10R
WOLF POINT     CLEAR     45  27  49 W6        30.09R
* BEAVER HILL  N/A       48  25  41 SW11       N/A
* CIRCLE       N/A       45  27  49 N/A        N/A
* LINDSAY DVD  N/A       42  26  53 W9         N/A
* NAVAJO       N/A       42  33  71 NW12G17    N/A
$$

MTZ028>042-056>058-210600-
SOUTHCENTRAL AND SOUTHEAST MONTANA
CITY           SKY/WX    TMP DP  RH WIND       PRES   REMARKS
BAKER          CLEAR     45  21  38 W5        30.13R
BILLINGS       PTCLDY    50  16  26 NE3       30.19R
LIVINGSTON     PTCLDY    45  18  34 NE7       30.22R
MILES CITY     CLEAR     45  23  42 W9        30.14R
* LAUREL APT   PTCLDY    48  16  28 N6         N/A
* ROUNDUP APT  PTCLDY    48  12  23 N/A        N/A
* HYSHAM       N/A       51  15  24 NW2        N/A
* LAME DEER    N/A       48  15  27 N6         N/A
* REED POINT   N/A       46  16  30 N2         N/A
* ROSCOE HILL  N/A       44   9  24 SE8        N/A
$$

REGIONAL REPORTS...DAKOTAS
CITY           SKY/WX    TMP DP  RH WIND       PRES   REMARKS
WILLISTON      CLEAR     45  28  51 NW9       30.05R
DICKINSON      CLEAR     39  25  57 W7        30.06R WCI  34
CROSBY         CLEAR     43  36  76 NW15G22   30.03R
TIOGA          CLEAR     45  32  60 W14       30.05R
WATFORD CITY   CLEAR     37  27  67 SW7       30.05R WCI  32
BISMARCK       CLEAR     46  28  50 W7        30.02R
GRAND FORKS    LGT RAIN  57  37  47 NW13G20   29.89R
FARGO          PTCLDY    57  34  42 NW8       29.91R
BUFFALO SD     CLEAR     45  21  38 NW12      30.06S
RAPID CITY     CLEAR     48  27  44 NW15      30.11R
$$

REGIONAL REPORTS...WYOMING/IDAHO/WASHINGTON
CITY           SKY/WX    TMP DP  RH WIND       PRES   REMARKS
GILLETTE       CLEAR     32  25  75 CALM      30.18F
SHERIDAN       PTCLDY    45  25  45 W9        30.19S
CODY           PTCLDY    46  19  34 NW7       30.22R
YELLOWSTONE LA CLEAR     27  21  78 CALM      30.31R
SALMON         PTCLDY    43  21  42 CALM      30.22R
MULLAN PASS    CLEAR     34  21  59 S5        30.23S WCI  29
SAND POINT     CLEAR     37  32  82 CALM      30.23R
SPOKANE        FAIR      48  28  46 E5        30.19F
$$

REGIONAL REPORTS...ALBERTA
CITY           SKY/WX    TMP DP  RH WIND       PRES   REMARKS
CALGARY        FAIR      45  16  31 W12       30.09R
LETHBRIDGE     FAIR      45  23  42 W16       30.12R
MEDICINE HAT   MOCLDY    46  28  50 E5        30.11R
EDMONTON       MOCLDY    36  30  79 S8        30.04R WCI  30
WATERTON GATE  N/A       43  19  38 SW13G21    N/A
CARDSTON       N/A       43  23  45 W9         N/A
MILK RIVER     N/A       39  25  57 W7         N/A   WCI  34
$$

REGIONAL REPORTS...SASKATCHEWAN
CITY           SKY/WX    TMP DP  RH WIND       PRES   REMARKS
SWIFT CURRENT  CLEAR     36  34  92 VRB2      30.09R
REGINA         CLOUDY    36  36 100 NW7       30.06R WCI  30
VAL MARIE      N/A       32  25  75 NW5        N/A   WCI  27
ASSINIBOIA     N/A       37  34  89 NW10       N/A   WCI  30
CORONACH       N/A       36  30  79 NW7        N/A   WCI  30

$$




USA.gov is the U.S. government's official web portal to all federal, state and local government web resources and services.